Regional Weather Roundup
Issued by NWS

Home | Current Version | Previous Version | Graphics & Text | Print | Product List | Glossary On
Versions: 1 2 3 4 5 6 7 8 9 10 11 12 13 14 15 16 17 18 19 20 21 22 23 24 25 26 27 28 29 30 31 32 33 34 35 36 37 38 39 40 41 42 43 44 45 46 47 48 49 50
000
ASUS45 KBOU 190207
RWRCO

WEATHER ROUNDUP FOR COLORADO
NATIONAL WEATHER SERVICE DENVER/BOULDER CO
800 PM MDT FRI AUG 18 2017

NOTE: "FAIR" INDICATES FEW OR NO CLOUDS BELOW 12000 FEET WITH NO
SIGNIFICANT WEATHER AND/OR OBSTRUCTIONS TO VISIBILITY.

COZ001>005-013-030-031-190300-
...NORTHWEST COLORADO...

CITY           SKY/WX    TMP DP  RH WIND       PRES   REMARKS
CRAIG          FAIR      73  27  18 W8        30.18S
HAYDEN         FAIR      78  30  17 W3        30.23R
MEEKER         FAIR      79  21  11 W7        30.21R
RABBIT EARS PA FAIR      57  32  38 NW3       30.55S
STEAMBOAT SPGS FAIR      73  33  23 NW3       30.24S
WALDEN         FAIR      66  28  24 W5        30.37R
$$

COZ006>008-011-190300-
...WEST CENTRAL VALLEYS...

CITY           SKY/WX    TMP DP  RH WIND       PRES   REMARKS
GRAND JUNCTION FAIR      85  29  13 N8        30.07S
MONTROSE       FAIR      79  44  28 SW3       30.17R
EAGLE          FAIR      78  29  16 SW9       30.24R
RIFLE          FAIR      83  25  12 W5        30.13R
DELTA          FAIR      87  29  12 N3        30.11S
NUCLA          FAIR      81  27  13 NW6       30.20S
$$

COZ017>023-064>068-190300-
...SOUTHWEST COLORADO...

CITY           SKY/WX    TMP DP  RH WIND       PRES   REMARKS
DURANGO        FAIR      79  25  13 W6        30.23S
CORTEZ         FAIR      77  33  20 SW5       30.17F
PAGOSA SPRINGS FAIR      75  24  14 CALM      30.33R
TELLURIDE      MOCLDY    69  32  25 SE7       30.47R
WOLF CREEK PAS FAIR      52  27  37 SW6       30.72S
$$

COZ009-010-012-014-032>034-037-058>063-190300-
...CENTRAL COLORADO...

CITY           SKY/WX    TMP DP  RH WIND       PRES   REMARKS
ASPEN          FAIR      72  34  24 VRB3      30.32S
BUENA VISTA    MOCLDY    70  32  24 W3        30.33R
COPPER MTN     FAIR      59  27  29 NW14      30.68S
BERTHOUD PASS  MOCLDY    48  43  81 NW5       30.71S
COTTONWOOD PAS FAIR      70  19  14 W14G22    30.49S
GUNNISON       FAIR      68  40  35 SW5       30.33R
KREMMLING      FAIR      77  32  19 W5        30.30R
LEADVILLE      FAIR      60  32  34 VRB3      30.50R
MONARCH PASS   FAIR      55  27  33 W16       30.78R
SALIDA         FAIR      74  37  26 W9        30.36R
SUNLIGHT       FAIR      54  28  37 SW7G17    30.60S
WILKERSON PASS CLOUDY    55  34  44 SE5       30.64S
$$

COZ069>075-190300-
...SAN LUIS VALLEY/SANGRE DE CRISTO MOUNTAINS...

CITY           SKY/WX    TMP DP  RH WIND       PRES   REMARKS
ALAMOSA        FAIR      67  48  50 E5        30.29S
DEL NORTE      FAIR      70  35  28 N10       30.35R
LA VETA PASS   NOT AVBL
SAGUACHE       FAIR      68  36  30 W12       30.34S
$$

COZ035-036-038>040-190300-
...NORTHERN COLORADO FRONT RANGE...

CITY           SKY/WX    TMP DP  RH WIND       PRES   REMARKS
DENVER INTL AP FAIR      76  42  29 E9        30.13S
DMNS CITY PARK   N/A     78  45  30 SE9       30.12S
AURORA         PTCLDY    73  49  41 SE10      30.16S
FRONT RANGE AP PTCLDY    75  46  35 E6        30.16R
ERIE MUNI ARPT FAIR      73  46  37 N3        30.17R
BOULDER MUN AP FAIR      75  43  31 NW3       30.14R
CENTENNIAL     FAIR      78  47  33 SE9       30.17S
BROOMFIELD     PTCLDY    77  41  27 N7        30.17R
FORT COLLINS   FAIR      75  48  38 S3        30.12S
LONGMONT       FAIR      72  54  53 NW5       30.14R
$$

COZ041-046-047-076>085-087-088-190300-
...PIKES PEAK/PALMER DIVIDE AND SOUTHERN FOOTHILLS...

CITY           SKY/WX    TMP DP  RH WIND       PRES   REMARKS
COLO. SPRINGS  FAIR      74  46  36 E8        30.22R
A. F. ACADEMY  FAIR      70  42  36 SW5       30.24R
SCHRIEVER AFB  FAIR      70  45  40 E8        30.23R
CHEYENNE MTN   FAIR      73  38  28 S15       30.23R
ELLICOTT       NOT AVBL
FALCON         FAIR      67  45  43 S8        30.28S
FORT CARSON    FAIR      72  46  39 SE7       30.18R
LIMON          FAIR      68  53  58 SE7       30.17R
MONUMENT HILL  FAIR      63  48  59 SE8       30.29S
CANON CITY     CLEAR     77  48  36 NE7       30.13R
WALSENBURG     NOT AVBL
TRINIDAD       FAIR      77  42  28 SE9       30.18R
$$

COZ042>045-048>051-090-091-190300-
...NORTHEAST COLORADO...

CITY           SKY/WX    TMP DP  RH WIND       PRES   REMARKS
GREELEY ARPT   FAIR      75  54  47 E3        30.10S
AKRON          FAIR      72  48  42 SE12      30.11S
BURLINGTON     FAIR      68  58  70 SE7       30.11S
WRAY           NOT AVBL
YUMA           FAIR      66  46  48 SE7       30.09S
STERLING       FAIR      73  52  46 S6        30.05R
HOLYOKE        FAIR      68  57  68 SE9       30.07R
FORT MORGAN    FAIR      73  48  41 SE6       30.09S
$$

COZ086-089-092>099-190300-
...SOUTHEAST COLORADO...

CITY           SKY/WX    TMP DP  RH WIND       PRES   REMARKS
PUEBLO         FAIR      80  44  27 E8        30.09R
LA JUNTA       FAIR      77  53  43 E8        30.07R
LAMAR          FAIR      76  59  55 E8        30.04R
SPRINGFIELD      N/A     72  62  71 NE6       30.10R
$$



USA.gov is the U.S. government's official web portal to all federal, state and local government web resources and services.